FENGYUN 1C DEB

Satellite information

Favourite Embed

Satellite Type and Status

DEBRISIN ORBIT

Key statistics

Satellite FENGYUN 1C DEB at a glance.

Uptime

9660

Days in orbit

Revolutions

≈ 14.5

Per day

Orbit

SSO

Sun Synchronous Orbit

Inclination

98.9

Latest

Satellite identification and parameters

Extended collection of information and parameters for FENGYUN 1C DEB.

Object identification

Identified? True

Debris? True

Object name: FENGYUN 1C DEB

International designator: 1999-025CWC

Object number (NORAD): 32230

Object ID (CCSDS): 32230

Country: PEOPLES REPUBLIC OF CHINA (PRC)

Current information (Y/N): Y

RCS size: SMALL

Orbital parameters

Period: 99.05 minutes

Inclination: 98.8733 deg

SMA: 7091.388 km

Apoapsis: 752.263 km

Periapsis: 674.243 km

RAAN: 79.1938 deg

Eccentricy: 0.00550107

Argument of periapsis: 250.5918 deg

Mean anomaly: 266.538 deg

Mean motion: 14.53804108 rev/day

Mean motion (dot): 0.00025853 rev/day2

B* drag term: 0.0060270073 1/REarth

Two-line elements (TLE)

Creation date: Oct. 20, 2025, 2:10 a.m.

Reference frame: TEME

Reference center: EARTH

Epoch: Oct. 19, 2025, 8:56 p.m. UTC

TLE line 0: 0 FENGYUN 1C DEB

TLE line 1: 1 32230U 99025CWC 25292.87263742 .00025853 00000-0 60270-2 0 9994

TLE line 2: 2 32230 98.8733 79.1938 0055011 250.5918 266.5380 14.53804108598869

Live tracking on map

Real-time ground track for satellite FENGYUN 1C DEB.

In-orbit conjunctions

A list of the most updated potential collisions computed for object FENGYUN 1C DEB.

Target Orbit TCA Probability of collision Miss distance Type
SARA SSO 2025-07-01 12:24:23 0.0001037303 341.0 (m) PAYLOAD
FENGYUN 1C DEB SSO 2024-11-14 18:33:35 0.0004174772 107.0 (m) DEBRIS
CZ-4B R/B SSO 2024-10-28 03:54:53 0.0002994737 195.0 (m) ROCKET BODY

Associated space launch

Chinese polar orbiting meteorological satellite

FENGYUN 1C DEB was lifted into orbit during the mission ‘Long March 4B | Feng Yun 1C’, on board a Long March 4B space rocket.

The launch took place on May 10, 1999, 1:33 a.m. from Launch Complex 7.

For more information about the launch, click the button.

Launch to space Long March 4B | Feng Yun 1C
Long March 4B | Feng Yun 1C

Agency: N/A

Status: Launch Successful

Launch date: May 10, 1999, 1:33 a.m. UTC

Rocket: Long March 4B

Launch pad: Launch Complex 7

Location: Taiyuan Satellite Launch Center, People's Republic of China

...

Latest news about this satellite

There are no fresh news available about this satellite. Check back as we update our databases every day.


Newsletter sign-up

Weekly statistics, charts and insights to help you stay on top of the space industry.